1495569601.17,28220,15.75,73974.8,1.11,-6.35,-5.15,0,*77
1495569602.4,28221,15.75,73972.5,1.11,-6.43,-5.23,0,*72
1495569603.62,28222,15.75,73974.5,1.11,-6.43,-5.15,0,*74
1495569604.85,28223,15.75,73974.5,1.11,-6.35,-5.11,0,*70
1495569606.1,28224,15.75,73972.0,1.09,-6.39,-5.15,0,*76
1495569607.33,28225,15.75,73974.0,1.11,-6.35,-5.03,0,*75
1495569608.56,28226,15.75,73976.0,1.11,-6.35,-5.03,0,*76
1495569609.76,28227,15.75,73974.3,1.11,-6.35,-4.99,0,*75
1495569610.95,28228,15.69,73974.8,1.11,-6.35,-4.99,0,*7A
1495569612.19,28229,15.75,73978.0,1.11,-6.35,-5.03,0,*79
1495569613.41,28230,15.75,73976.8,1.13,-6.43,-4.99,0,*70
1495569614.63,28231,15.75,73978.5,1.13,-6.43,-4.99,0,*71
1495569615.85,28232,15.75,73972.8,1.13,-6.43,-4.99,0,*72
1495569617.07,28233,15.75,73976.0,1.13,-6.35,-4.99,0,*72
1495569618.29,28234,15.75,73978.5,1.13,-6.43,-4.99,0,*74
1495569619.51,28235,15.75,73976.0,1.13,-6.39,-4.99,0,*78
1495569620.73,28236,15.75,73974.8,1.15,-6.39,-4.93,0,*77
1495569621.98,28237,15.75,73976.0,1.13,-6.43,-4.89,0,*76
1495569623.23,28238,15.69,73972.8,1.13,-6.43,-4.89,0,*79
1495569624.48,28239,15.75,73978.0,1.13,-6.43,-4.85,0,*74
1495569625.74,28240,15.75,73976.3,1.13,-6.35,-4.85,0,*7B
1495569626.99,28241,15.75,73974.8,1.13,-6.35,-4.85,0,*7A
1495569628.22,28242,15.75,73976.0,1.15,-6.31,-4.81,0,*7F
1495569629.47,28243,15.75,73978.8,1.13,-6.35,-4.85,0,*78
1495569630.72,28244,15.75,73976.3,1.15,-6.27,-4.73,0,*73
1495569631.97,28245,15.75,73978.0,1.13,-6.31,-4.77,0,*77
1495569633.22,28246,15.75,73976.8,1.13,-6.35,-4.85,0,*7D
1495569634.47,28247,15.75,73978.0,1.13,-6.35,-4.85,0,*7C
1495569635.73,28248,15.69,73974.8,1.13,-6.35,-4.85,0,*73
1495569636.98,28249,15.75,73976.5,1.13,-6.35,-4.77,0,*7F
1495569638.23,28250,15.75,73976.8,1.13,-6.35,-4.77,0,*77
1495569639.47,28251,15.75,73976.5,1.13,-6.31,-4.77,0,*72
1495569640.72,28252,15.75,73976.0,1.15,-6.27,-4.81,0,*79
1495569641.97,28253,15.69,73974.5,1.13,-6.31,-4.77,0,*70
1495569643.22,28254,15.69,73972.5,1.13,-6.31,-4.77,0,*77
1495569644.46,28255,15.75,73978.0,1.15,-6.27,-4.73,0,*73
1495569645.73,28256,15.75,73978.8,1.13,-6.23,-4.77,0,*76
1495569646.97,28257,15.69,73974.5,1.15,-6.27,-4.73,0,*71
1495569648.22,28258,15.75,73978.3,1.15,-6.27,-4.73,0,*7E
1495569649.47,28259,15.75,73978.3,1.15,-6.19,-4.73,0,*72
1495569650.74,28260,15.75,73976.0,1.13,-6.23,-4.73,0,*77
1495569652.01,28261,15.75,73976.5,1.13,-6.23,-4.77,0,*72
1495569653.26,28262,15.75,73978.3,1.13,-6.31,-4.85,0,*7F
1495569654.51,28263,15.75,73976.8,1.15,-6.23,-4.81,0,*7F
1495569655.79,28264,15.69,73972.5,1.13,-6.19,-4.85,0,*73
1495569657.02,28265,15.75,73976.8,1.15,-6.13,-4.81,0,*7A
1495569658.29,28266,15.75,73974.3,1.13,-6.23,-4.85,0,*78
1495569659.56,28267,15.69,73974.0,1.13,-6.19,-4.85,0,*70
1495569660.84,28268,15.75,73976.3,1.13,-6.19,-4.89,0,*73
1495569662.1,28269,15.75,73972.3,1.15,-6.19,-4.85,0,*78
1495569663.37,28270,15.75,73976.0,1.13,-6.23,-4.81,0,*7B
1495569664.62,28271,15.69,73972.8,1.15,-6.27,-4.85,0,*7C
1495569665.84,28272,15.69,73974.3,1.13,-6.31,-4.99,0,*73
1495569667.08,28273,15.75,73976.3,1.13,-6.23,-4.99,0,*71
1495569668.33,28274,15.75,73980.3,1.15,-6.27,-5.07,0,*72
1495569669.56,28275,15.75,73974.3,1.15,-6.19,-4.99,0,*78
1495569670.81,28276,15.75,73974.8,1.13,-6.31,-5.11,0,*76
1495569672.06,28277,15.75,73976.3,1.13,-6.31,-5.11,0,*77
1495569673.31,28278,15.69,73972.3,1.15,-6.27,-5.07,0,*7E
1495569674.58,28279,15.69,73972.5,1.13,-6.27,-5.11,0,*7E
1495569675.86,28280,15.75,73976.0,1.13,-6.23,-5.15,0,*78
1495569677.11,28281,15.69,73974.5,1.15,-6.27,-5.07,0,*78
1495569678.36,28282,15.69,73974.5,1.15,-6.19,-5.19,0,*79
1495569679.62,28283,15.75,73972.8,1.13,-6.31,-5.31,0,*7E
1495569680.87,28284,15.69,73974.5,1.13,-6.31,-5.23,0,*7A
1495569682.12,28285,15.75,73976.0,1.13,-6.31,-5.31,0,*78
1495569683.37,28286,15.75,73974.0,1.15,-6.27,-5.27,0,*7D
1495569684.59,28287,15.75,73976.5,1.15,-6.27,-5.35,0,*7F
1495569685.79,28288,15.75,73978.8,1.15,-6.31,-5.35,0,*77
1495569687.02,28289,15.75,73972.0,1.13,-6.35,-5.39,0,*78
1495569688.25,28290,15.75,73976.0,1.13,-6.35,-5.39,0,*70
1495569689.47,28291,15.75,73978.0,1.13,-6.43,-5.43,0,*7D
1495569690.69,28292,15.75,73978.5,1.13,-6.35,-5.43,0,*7F
1495569691.92,28293,15.69,73972.8,1.13,-6.31,-5.51,0,*79
1495569693.14,28294,15.69,73974.0,1.15,-6.27,-5.47,0,*78
1495569694.36,28295,15.75,73978.0,1.13,-6.31,-5.43,0,*7C
1495569695.58,28296,15.75,73976.5,1.13,-6.31,-5.43,0,*7F
1495569696.8,28297,15.69,73972.5,1.15,-6.27,-5.39,0,*72
1495569698.03,28298,15.75,73976.8,1.13,-6.31,-5.43,0,*71
1495569699.25,28299,15.75,73976.0,1.13,-6.31,-5.43,0,*70
1495569700.49,28300,15.75,73978.8,1.13,-6.23,-5.39,0,*7F
1495569701.72,28301,15.75,73976.8,1.15,-6.27,-5.39,0,*7C
1495569702.94,28302,15.75,73976.0,1.13,-6.31,-5.43,0,*73
1495569704.16,28303,15.75,73974.8,1.15,-6.27,-5.47,0,*77
1495569705.4,28304,15.75,73976.8,1.13,-6.23,-5.39,0,*7B
1495569706.66,28305,15.69,73974.3,1.15,-6.19,-5.27,0,*7A
1495569707.91,28306,15.69,73976.3,1.13,-6.13,-5.31,0,*72
1495569709.15,28307,15.75,73976.8,1.15,-6.09,-5.27,0,*79
1495569710.34,28308,15.75,73976.8,1.15,-6.13,-5.35,0,*7E
1495569711.57,28309,15.75,73976.0,1.13,-6.13,-5.39,0,*75
1495569712.8,28310,15.75,73976.0,1.15,-6.09,-5.27,0,*7F
1495569714.03,28311,15.69,73972.3,1.15,-6.01,-5.19,0,*7B
1495569715.23,28312,15.69,73972.8,1.15,-6.13,-5.39,0,*79
1495569716.43,28313,15.75,73976.5,1.15,-6.09,-5.35,0,*7F
1495569717.68,28314,15.69,73974.5,1.15,-5.89,-5.19,0,*7D
1495569718.94,28315,15.69,73978.3,1.15,-5.89,-5.11,0,*74
1495569720.18,28316,15.75,73978.3,1.17,-5.97,-5.19,0,*72
1495569721.43,28317,15.75,73976.0,1.17,-5.97,-5.19,0,*73
1495569722.68,28318,15.75,73978.0,1.17,-5.97,-5.27,0,*71
1495569723.93,28319,15.75,73976.8,1.17,-5.97,-5.19,0,*7D
1495569725.2,28320,15.75,73976.0,1.17,-5.89,-5.27,0,*75
1495569726.42,28321,15.75,73976.8,1.17,-5.97,-5.35,0,*78
1495569727.64,28322,15.69,73976.8,1.17,-5.97,-5.35,0,*7B
1495569728.86,28323,15.75,73978.8,1.17,-5.97,-5.35,0,*7A
1495569730.08,28324,15.75,73978.5,1.17,-5.97,-5.39,0,*71
1495569731.35,28325,15.75,73978.5,1.17,-5.89,-5.27,0,*70
1495569732.6,28326,15.75,73976.0,1.21,-5.85,-5.35,0,*79
1495569733.84,28327,15.69,73972.3,1.17,-5.89,-5.47,0,*74
1495569735.08,28328,15.75,73976.0,1.17,-5.89,-5.47,0,*7B
1495569736.33,28329,15.69,73972.3,1.17,-5.89,-5.47,0,*7A
1495569737.57,28330,15.75,73976.0,1.17,-5.89,-5.47,0,*72
1495569738.82,28331,15.75,73976.5,1.21,-5.81,-5.55,0,*7D
1495569740.05,28332,15.69,73976.5,1.15,-5.85,-5.51,0,*79
1495569741.32,28333,15.75,73978.5,1.17,-5.89,-5.65,0,*71
1495569742.59,28334,15.75,73978.0,1.17,-5.89,-5.65,0,*76
1495569743.86,28335,15.69,73974.5,1.17,-5.89,-5.65,0,*77
1495569745.11,28336,15.69,73974.5,1.21,-5.81,-5.55,0,*7A
1495569746.38,28337,15.69,73976.5,1.17,-5.85,-5.65,0,*79
1495569747.65,28338,15.75,73978.8,1.17,-5.89,-5.65,0,*7A
1495569748.92,28339,15.75,73976.0,1.21,-5.81,-5.73,0,*71
1495569750.18,28340,15.75,73978.8,1.17,-5.89,-5.77,0,*76
1495569751.45,28341,15.75,73976.0,1.21,-5.81,-5.73,0,*7E
1495569752.71,28342,15.75,73978.8,1.17,-5.77,-5.73,0,*71
1495569753.98,28343,15.69,73974.8,1.17,-5.77,-5.77,0,*74
1495569755.24,28344,15.69,73976.5,1.17,-5.73,-5.77,0,*77
1495569756.51,28345,15.69,73974.0,1.17,-5.73,-5.89,0,*77
1495569757.78,28346,15.69,73978.0,1.21,-5.69,-5.85,0,*76
1495569759.02,28347,15.69,73976.5,1.15,-5.73,-5.85,0,*7B
1495569760.26,28348,15.69,73974.0,1.17,-5.73,-5.97,0,*75
1495569761.49,28349,15.69,73978.0,1.17,-5.73,-5.97,0,*74
1495569762.73,28350,15.69,73976.8,1.21,-5.69,-6.01,0,*7E
1495569763.97,28351,15.75,73976.0,1.17,-5.65,-6.01,0,*76
1495569765.19,28352,15.69,73976.3,1.21,-5.55,-5.97,0,*7F
1495569766.43,28353,15.75,73976.0,1.17,-5.61,-6.01,0,*70
1495569767.65,28354,15.75,73976.3,1.15,-5.65,-6.01,0,*71
1495569768.87,28355,15.69,73976.5,1.15,-5.61,-6.09,0,*7C
1495569770.11,28356,15.69,73976.5,1.17,-5.61,-6.09,0,*7D
1495569771.33,28357,15.69,73978.5,1.17,-5.51,-6.09,0,*7F
1495569772.54,28358,15.69,73976.0,1.17,-5.51,-6.13,0,*7B
1495569773.81,28359,15.75,73978.5,1.17,-5.61,-6.19,0,*73
1495569775.06,28360,15.69,73978.0,1.17,-5.51,-6.19,0,*7A
1495569776.28,28361,15.75,73978.3,1.15,-5.47,-6.27,0,*73
1495569777.49,28362,15.69,73976.0,1.21,-5.43,-6.13,0,*74
1495569778.72,28363,15.75,73978.8,1.21,-5.43,-6.23,0,*76
1495569779.97,28364,15.75,73976.5,1.21,-5.47,-6.27,0,*71
1495569781.19,28365,15.69,73978.0,1.21,-5.47,-6.35,0,*73
1495569782.41,28366,15.69,73974.8,1.17,-5.47,-6.43,0,*74
1495569783.63,28367,15.75,73978.5,1.17,-5.51,-6.51,0,*71
1495569784.85,28368,15.69,73976.8,1.17,-5.51,-6.43,0,*7D
1495569786.07,28369,15.75,73978.8,1.17,-5.51,-6.51,0,*7F
1495569787.29,28370,15.69,73976.5,1.17,-5.47,-6.51,0,*70
1495569788.51,28371,15.69,73976.0,1.21,-5.35,-6.47,0,*76
1495569789.75,28372,15.75,73976.5,1.17,-5.39,-6.63,0,*7A
1495569790.97,28373,15.69,73976.0,1.21,-5.35,-6.59,0,*7B
1495569792.18,28374,15.75,73976.0,1.17,-5.35,-6.69,0,*7A
1495569793.39,28375,15.69,73978.0,1.17,-5.39,-6.69,0,*77
1495569794.61,28376,15.69,73978.0,1.17,-5.39,-6.77,0,*7B
1495569795.83,28377,15.69,73974.3,1.17,-5.39,-6.77,0,*7A
1495569797.04,28378,15.69,73976.8,1.17,-5.35,-6.89,0,*78
1495569798.26,28379,15.69,73978.8,1.17,-5.35,-6.89,0,*79
1495569799.48,28380,15.75,73980.3,1.17,-5.35,-6.89,0,*7F
1495569800.72,28381,15.75,73980.3,1.21,-5.31,-6.89,0,*7F
1495569801.99,28382,15.75,73980.0,1.17,-5.23,-6.97,0,*75
1495569803.25,28383,15.75,73980.5,1.17,-5.27,-6.93,0,*74
1495569804.5,28384,15.75,73980.0,1.17,-5.35,-6.93,0,*70
1495569805.77,28385,15.69,73976.5,1.17,-5.23,-6.97,0,*72
1495569807.04,28386,15.69,73978.5,1.17,-5.23,-6.97,0,*71
1495569808.28,28387,15.69,73978.3,1.17,-5.19,-7.11,0,*76
1495569809.53,28388,15.69,73976.3,1.17,-5.23,-7.11,0,*70
1495569810.78,28389,15.69,73976.3,1.17,-5.23,-7.11,0,*71
1495569812.03,28390,15.69,73978.0,1.17,-5.27,-7.23,0,*7C
1495569813.28,28391,15.69,73974.5,1.17,-5.27,-7.23,0,*7D
1495569814.54,28392,15.75,73976.0,1.17,-5.27,-7.31,0,*7D
1495569815.81,28393,15.69,73974.0,1.17,-5.27,-7.35,0,*78
1495569817.08,28394,15.75,73978.8,1.17,-5.27,-7.43,0,*7E
1495569818.35,28395,15.69,73976.8,1.17,-5.27,-7.43,0,*7F
1495569819.6,28396,15.75,73978.3,1.17,-5.35,-7.57,0,*7A
1495569820.87,28397,15.69,73974.8,1.17,-5.23,-7.43,0,*79
1495569822.11,28398,15.75,73976.8,1.17,-5.27,-7.49,0,*78
1495569823.38,28399,15.75,73978.5,1.17,-5.27,-7.61,0,*73
1495569824.66,28400,15.69,73974.5,1.17,-5.27,-7.61,0,*74
1495569825.9,28401,15.69,73974.5,1.17,-5.35,-7.73,0,*75
1495569827.17,28402,15.69,73976.8,1.21,-5.31,-7.69,0,*7C
1495569828.43,28403,15.69,73978.0,1.17,-5.23,-7.69,0,*7B
1495569829.7,28404,15.69,73976.3,1.17,-5.27,-7.69,0,*78
1495569830.95,28405,15.75,73978.0,1.21,-5.23,-7.83,0,*7C
1495569832.16,28406,15.69,73974.3,1.17,-5.35,-7.87,0,*79
1495569833.43,28407,15.69,73974.0,1.17,-5.27,-7.99,0,*74
1495569834.7,28408,15.69,73976.8,1.17,-5.27,-7.91,0,*73
1495569835.94,28409,15.69,73976.3,1.17,-5.39,-7.99,0,*75
1495569837.21,28410,15.69,73974.3,1.17,-5.23,-7.99,0,*76
1495569838.48,28411,15.75,73980.0,1.17,-5.27,-7.99,0,*73
1495569839.75,28412,15.69,73976.5,1.21,-5.31,-8.07,0,*7A
1495569841.02,28413,15.75,73978.5,1.17,-5.27,-8.11,0,*7E
1495569842.26,28414,15.69,73976.5,1.17,-5.35,-8.11,0,*7A
1495569843.47,28415,15.69,73976.5,1.17,-5.35,-8.25,0,*7C
1495569844.69,28416,15.69,73976.5,1.17,-5.39,-8.17,0,*72
1495569845.9,28417,15.69,73976.3,1.17,-5.47,-8.25,0,*7B
1495569847.13,28418,15.69,73976.0,1.17,-5.47,-8.37,0,*77
1495569848.34,28419,15.69,73976.5,1.17,-5.47,-8.41,0,*77
1495569849.57,28420,15.69,73978.0,1.17,-5.51,-8.37,0,*7B
1495569850.78,28421,15.69,73978.5,1.17,-5.47,-8.41,0,*7C
1495569852.0,28422,15.69,73978.5,1.17,-5.51,-8.41,0,*78
1495569853.24,28423,15.75,73976.8,1.17,-5.51,-8.51,0,*78
1495569854.46,28424,15.69,73976.0,1.17,-5.51,-8.63,0,*7E
1495569855.67,28425,15.69,73976.5,1.17,-5.51,-8.63,0,*7F
1495569856.91,28426,15.69,73976.8,1.17,-5.61,-8.71,0,*7C
1495569858.15,28427,15.69,73976.0,1.17,-5.61,-8.71,0,*7D
1495569859.38,28428,15.69,73976.5,1.17,-5.61,-8.71,0,*72
1495569860.6,28429,15.75,73978.8,1.21,-5.55,-8.67,0,*76
1495569861.85,28430,15.69,73976.3,1.17,-5.61,-8.81,0,*74
1495569863.09,28431,15.69,73974.3,1.17,-5.65,-8.71,0,*7E
1495569864.35,28432,15.69,73978.8,1.17,-5.73,-8.81,0,*75
1495569865.6,28433,15.69,73976.5,1.17,-5.73,-8.81,0,*74
1495569866.87,28434,15.69,73976.0,1.17,-5.77,-8.81,0,*77
1495569868.13,28435,15.69,73974.8,1.17,-5.77,-8.81,0,*76
1495569869.37,28436,15.69,73978.0,1.17,-5.77,-8.71,0,*7A
1495569870.63,28437,15.69,73978.5,1.17,-5.89,-8.81,0,*75
1495569871.89,28438,15.69,73974.5,1.17,-5.85,-8.81,0,*76
1495569873.12,28439,15.75,73978.8,1.17,-5.97,-8.85,0,*70
1495569874.34,28440,15.69,73972.3,1.17,-6.01,-8.85,0,*72
1495569875.56,28441,15.69,73972.5,1.21,-5.97,-8.89,0,*76
1495569876.79,28442,15.69,73974.5,1.21,-5.97,-8.81,0,*7D
1495569878.01,28443,15.69,73976.3,1.17,-6.01,-8.93,0,*76
1495569879.23,28444,15.69,73976.0,1.17,-6.13,-8.93,0,*72
1495569880.45,28445,15.69,73978.0,1.21,-6.09,-8.89,0,*76
1495569881.66,28446,15.75,73976.5,1.17,-6.13,-8.97,0,*74
1495569882.91,28447,15.69,73974.8,1.17,-6.19,-8.89,0,*70
1495569884.16,28448,15.75,73978.3,1.17,-6.19,-8.97,0,*70
1495569885.39,28449,15.69,73974.0,1.17,-6.27,-9.05,0,*76
1495569886.63,28450,15.69,73976.3,1.21,-6.27,-9.01,0,*7F
1495569887.85,28451,15.75,73976.8,1.17,-6.31,-9.05,0,*78
1495569889.07,28452,15.69,73976.8,1.17,-6.31,-9.05,0,*7B
1495569890.29,28453,15.69,73974.5,1.21,-6.35,-8.89,0,*7E
1495569891.52,28454,15.69,73974.8,1.17,-6.51,-9.05,0,*7B
1495569892.73,28455,15.69,73972.8,1.17,-6.43,-8.93,0,*77
1495569893.95,28456,15.69,73972.5,1.21,-6.47,-8.89,0,*7E
1495569895.17,28457,15.69,73972.8,1.21,-6.47,-8.89,0,*7F
1495569896.39,28458,15.69,73972.8,1.17,-6.55,-8.93,0,*7D
1495569897.63,28459,15.69,73972.0,1.17,-6.63,-8.85,0,*7E
1495569898.84,28460,15.75,73976.8,1.21,-6.59,-8.89,0,*74
1495569900.06,28461,15.75,73976.8,1.21,-6.59,-8.89,0,*75
1495569901.29,28462,15.69,73976.3,1.17,-6.77,-8.85,0,*73
1495569902.52,28463,15.69,73974.0,1.17,-6.69,-8.81,0,*79
1495569903.75,28464,15.69,73974.0,1.21,-6.63,-8.75,0,*7A
1495569904.96,28465,15.69,73974.0,1.17,-6.77,-8.71,0,*7F
1495569906.2,28466,15.69,73974.8,1.21,-6.73,-8.51,0,*7F
1495569907.42,28467,15.69,73974.8,1.17,-6.77,-8.63,0,*7E
1495569908.62,28468,15.75,73978.5,1.21,-6.85,-8.67,0,*7D
1495569909.83,28469,15.69,73974.3,1.21,-6.89,-8.59,0,*7D
1495569911.07,28470,15.69,73976.3,1.21,-6.89,-8.51,0,*7D
1495569912.34,28471,15.75,73978.8,1.17,-6.97,-8.51,0,*76
1495569913.59,28472,15.69,73976.8,1.17,-6.93,-8.37,0,*71
1495569914.83,28473,15.69,73976.3,1.21,-6.93,-8.25,0,*76
1495569916.08,28474,15.69,73974.8,1.17,-6.97,-8.37,0,*73
1495569917.31,28475,15.69,73976.0,1.21,-7.01,-8.33,0,*7D
1495569918.53,28476,15.69,73974.8,1.17,-7.11,-8.17,0,*7C
1495569919.8,28477,15.69,73974.3,1.21,-7.05,-8.07,0,*7C
1495569921.07,28478,15.75,73978.8,1.21,-6.93,-7.99,0,*75
1495569922.34,28479,15.75,73978.8,1.21,-6.93,-7.99,0,*74
1495569923.61,28480,15.69,73972.3,1.17,-6.97,-7.91,0,*7B
1495569924.85,28481,15.69,73976.5,1.21,-6.85,-7.73,0,*70
1495569926.1,28482,15.69,73972.3,1.21,-6.93,-7.83,0,*7B
1495569927.36,28483,15.69,73974.0,1.21,-7.01,-7.73,0,*7F
1495569928.63,28484,15.69,73972.8,1.21,-7.01,-7.73,0,*78
1495569929.87,28485,15.75,73976.5,1.21,-7.01,-7.53,0,*7B
1495569931.14,28486,15.69,73974.0,1.21,-6.93,-7.43,0,*73
1495569932.41,28487,15.69,73976.0,1.21,-6.93,-7.31,0,*77
1495569933.65,28488,15.69,73976.8,1.21,-6.89,-7.27,0,*74
1495569934.89,28489,15.69,73972.0,1.21,-6.89,-7.27,0,*75
1495569936.11,28490,15.69,73970.5,1.21,-6.85,-7.15,0,*70
1495569937.33,28491,15.69,73972.0,1.17,-6.81,-7.19,0,*7C
1495569938.57,28492,15.69,73976.3,1.21,-6.77,-7.01,0,*7A
1495569939.82,28493,15.69,73976.3,1.21,-6.77,-6.93,0,*71
1495569941.03,28494,15.69,73974.5,1.21,-6.73,-6.89,0,*79
1495569942.26,28495,15.69,73972.8,1.21,-6.63,-6.73,0,*7C
1495569943.51,28496,15.69,73972.8,1.21,-6.59,-6.63,0,*77
1495569944.73,28497,15.69,73972.0,1.21,-6.59,-6.51,0,*77
1495569945.94,28498,15.69,73972.3,1.21,-6.59,-6.59,0,*70
1495569947.16,28499,15.69,73978.3,1.21,-6.51,-6.39,0,*7F
1495569948.38,28500,15.69,73974.8,1.21,-6.59,-6.39,0,*76
1495569949.62,28501,15.69,73972.8,1.21,-6.47,-6.27,0,*77
1495569950.84,28502,15.69,73976.0,1.23,-6.43,-6.19,0,*7F
1495569952.07,28503,15.69,73972.5,1.23,-6.35,-6.19,0,*7F
1495569953.28,28504,15.69,73974.8,1.23,-6.23,-6.05,0,*72
1495569954.53,28505,15.69,73974.8,1.23,-6.23,-5.93,0,*7F
1495569955.79,28506,15.69,73974.8,1.25,-6.23,-5.89,0,*71
1495569957.04,28507,15.69,73970.3,1.23,-6.23,-5.89,0,*76
1495569958.29,28508,15.69,73974.0,1.23,-6.19,-5.89,0,*70
1495569959.51,28509,15.69,73972.3,1.23,-6.09,-5.77,0,*71
1495569960.74,28510,15.69,73974.0,1.23,-6.09,-5.65,0,*7A
1495569961.96,28511,15.69,73972.5,1.23,-6.05,-5.65,0,*77
1495569963.15,28512,15.69,73974.8,1.23,-6.05,-5.51,0,*73
1495569964.35,28513,15.69,73974.8,1.23,-6.01,-5.51,0,*76
1495569965.55,28514,15.69,73972.0,1.23,-6.01,-5.51,0,*71
1495569966.77,28515,15.69,73974.0,1.23,-5.89,-5.39,0,*7D
1495569967.99,28516,15.69,73974.3,1.23,-5.89,-5.39,0,*7E
1495569969.24,28517,15.69,73974.8,1.21,-5.85,-5.35,0,*7D
1495569970.49,28518,15.69,73974.3,1.23,-5.69,-5.27,0,*71
1495569971.76,28519,15.69,73972.0,1.25,-5.77,-5.31,0,*7E
1495569973.01,28520,15.69,73974.8,1.23,-5.81,-5.11,0,*79
1495569974.26,28521,15.69,73976.8,1.23,-5.69,-5.11,0,*7E
1495569975.51,28522,15.69,73976.3,1.23,-5.65,-5.11,0,*71
1495569976.73,28523,15.69,73972.5,1.23,-5.51,-4.89,0,*77
1495569977.96,28524,15.69,73974.3,1.23,-5.51,-4.85,0,*7C
1495569979.2,28525,15.69,73974.3,1.25,-5.51,-4.89,0,*77
1495569980.42,28526,15.69,73976.0,1.23,-5.39,-4.73,0,*79
1495569981.67,28527,15.69,73974.8,1.23,-5.31,-4.77,0,*74
1495569982.93,28528,15.69,73974.3,1.25,-5.27,-4.73,0,*7E
1495569984.16,28529,15.69,73972.5,1.23,-5.27,-4.65,0,*7E
1495569985.38,28530,15.69,73974.8,1.23,-5.15,-4.65,0,*77
1495569986.63,28531,15.69,73974.0,1.25,-5.15,-4.65,0,*70
1495569987.87,28532,15.69,73974.5,1.25,-5.15,-4.65,0,*73
1495569989.09,28533,15.69,73974.3,1.23,-5.11,-4.61,0,*74
1495569990.31,28534,15.69,73976.8,1.23,-4.89,-4.49,0,*79
1495569991.53,28535,15.69,73974.8,1.23,-4.89,-4.53,0,*73
1495569992.76,28536,15.69,73972.3,1.25,-4.77,-4.49,0,*7C
1495569993.98,28537,15.69,73972.0,1.23,-4.77,-4.41,0,*73
1495569995.19,28538,15.69,73974.3,1.23,-4.73,-4.49,0,*70
1495569996.38,28539,15.69,73978.5,1.23,-4.65,-4.49,0,*76
1495569997.6,28540,15.69,73974.3,1.23,-4.73,-4.41,0,*77
1495569998.79,28541,15.69,73976.0,1.23,-4.65,-4.49,0,*79
1495569999.99,28542,15.69,73976.0,1.23,-4.65,-4.49,0,*7A
1495570001.18,28543,15.69,73976.3,1.23,-4.65,-4.41,0,*73
1495570002.37,28544,15.69,73972.0,1.23,-4.53,-4.37,0,*70
1495570003.59,28545,15.69,73974.8,1.25,-4.41,-4.41,0,*75
1495570004.8,28546,15.69,73976.5,1.25,-4.49,-4.41,0,*7E
1495570006.01,28547,15.69,73974.3,1.25,-4.41,-4.41,0,*77
1495570007.23,28548,15.69,73972.5,1.25,-4.41,-4.41,0,*78
1495570008.42,28549,15.69,73974.5,1.23,-4.33,-4.41,0,*7A
1495570009.63,28550,15.69,73974.0,1.25,-4.37,-4.41,0,*70
1495570010.86,28551,15.69,73974.8,1.25,-4.25,-4.37,0,*73
1495570012.08,28552,15.69,73968.8,1.25,-4.21,-4.41,0,*75
1495570013.29,28553,15.69,73974.5,1.25,-4.25,-4.49,0,*78
1495570014.52,28554,15.69,73972.5,1.25,-4.25,-4.53,0,*74
1495570015.73,28555,15.69,73972.0,1.25,-4.09,-4.53,0,*7B
1495570016.95,28556,15.69,73972.8,1.25,-4.09,-4.49,0,*73
1495570018.18,28557,15.69,73968.8,1.23,-4.01,-4.53,0,*77
1495570019.4,28558,15.69,73972.3,1.25,-3.95,-4.53,0,*74
1495570020.61,28559,15.69,73972.8,1.23,-3.95,-4.61,0,*72
1495570021.83,28560,15.69,73968.8,1.25,-3.95,-4.61,0,*7E
1495570023.05,28561,15.69,73968.0,1.25,-3.95,-4.61,0,*7F
1495570024.28,28562,15.69,73972.8,1.25,-3.87,-4.65,0,*7B
1495570025.5,28563,15.69,73974.0,1.25,-3.87,-4.65,0,*7A
1495570026.72,28564,15.69,73970.5,1.27,-3.83,-4.73,0,*7C
1495570027.96,28565,15.69,73972.3,1.25,-3.87,-4.73,0,*7B
1495570029.21,28566,15.69,73970.5,1.25,-3.75,-4.77,0,*71
1495570030.48,28567,15.69,73972.3,1.25,-3.71,-4.85,0,*79
1495570031.74,28568,15.69,73972.3,1.25,-3.71,-4.85,0,*76
1495570032.99,28569,15.69,73972.3,1.23,-3.71,-4.89,0,*7D
1495570034.24,28570,15.69,73974.0,1.23,-3.71,-5.03,0,*76
1495570035.5,28571,15.69,73970.5,1.23,-3.59,-5.03,0,*7D
1495570036.77,28572,15.69,73974.5,1.25,-3.63,-5.19,0,*7A
1495570038.04,28573,15.69,73972.3,1.25,-3.59,-5.31,0,*78
1495570039.31,28574,15.69,73968.5,1.25,-3.63,-5.31,0,*76
1495570040.56,28575,15.69,73974.5,1.25,-3.59,-5.39,0,*76
1495570041.78,28576,15.69,73972.8,1.23,-3.63,-5.43,0,*77
1495570043.01,28577,15.69,73976.8,1.23,-3.63,-5.55,0,*71
1495570044.24,28578,15.69,73972.8,1.23,-3.51,-5.55,0,*7F
1495570045.51,28579,15.69,73974.3,1.25,-3.59,-5.69,0,*7F
1495570046.76,28580,15.69,73974.3,1.23,-3.63,-5.81,0,*70
1495570048.03,28581,15.69,73976.0,1.25,-3.59,-5.81,0,*7E
1495570049.3,28582,15.69,73972.0,1.25,-3.51,-5.93,0,*76
1495570050.53,28583,15.69,73972.8,1.25,-3.51,-6.05,0,*7B
1495570051.77,28584,15.69,73970.5,1.25,-3.59,-6.09,0,*78
1495570053.0,28585,15.69,73972.8,1.23,-3.63,-6.31,0,*7D
1495570054.25,28586,15.69,73972.0,1.25,-3.63,-6.31,0,*78
1495570055.47,28587,15.69,73970.5,1.23,-3.59,-6.47,0,*77
1495570056.7,28588,15.69,73974.5,1.23,-3.63,-6.55,0,*72
1495570057.92,28589,15.69,73972.5,1.23,-3.63,-6.69,0,*7C
1495570059.16,28590,15.69,73970.5,1.25,-3.63,-6.81,0,*74
1495570060.39,28591,15.69,73974.3,1.23,-3.63,-6.85,0,*77
1495570061.63,28592,15.69,73972.5,1.23,-3.71,-7.01,0,*7A
1495570062.87,28593,15.69,73972.5,1.23,-3.71,-7.01,0,*7B
1495570064.1,28594,15.69,73972.3,1.25,-3.75,-7.15,0,*7B
1495570065.36,28595,15.69,73972.3,1.25,-3.71,-7.27,0,*7F
1495570066.59,28596,15.69,73970.5,1.23,-3.75,-7.27,0,*7E
1495570067.81,28597,15.69,73970.8,1.25,-3.87,-7.53,0,*77
1495570069.0,28598,15.69,73972.8,1.23,-3.87,-7.49,0,*75
1495570070.24,28599,15.69,73976.5,1.25,-3.87,-7.65,0,*7C
1495570071.49,28600,15.69,73972.5,1.25,-3.87,-7.77,0,*7C
1495570072.76,28601,15.69,73974.5,1.25,-4.01,-7.91,0,*7C
1495570073.98,28602,15.69,73972.5,1.23,-3.95,-7.95,0,*77
1495570075.26,28603,15.69,73972.3,1.25,-4.01,-8.07,0,*7E
1495570076.48,28604,15.69,73972.5,1.23,-4.01,-8.29,0,*73
1495570077.67,28605,15.69,73972.8,1.23,-4.13,-8.41,0,*7F
1495570078.87,28606,15.69,73972.3,1.23,-4.25,-8.55,0,*7C
1495570080.06,28607,15.69,73970.8,1.23,-4.25,-8.71,0,*7B
1495570081.24,28608,15.69,73970.8,1.23,-4.37,-8.71,0,*77
1495570082.45,28609,15.69,73974.3,1.25,-4.37,-8.75,0,*74
1495570083.64,28610,15.69,73972.0,1.23,-4.49,-8.97,0,*7F
1495570084.86,28611,15.69,73970.3,1.23,-4.61,-9.11,0,*7B
1495570086.09,28612,15.69,73974.8,1.25,-4.53,-9.15,0,*7B
1495570087.31,28613,15.69,73972.3,1.23,-4.61,-9.37,0,*7D
1495570088.55,28614,15.69,73972.0,1.25,-4.65,-9.45,0,*7D
1495570089.79,28615,15.69,73972.0,1.23,-4.73,-9.57,0,*7E
1495570091.02,28616,15.69,73970.3,1.23,-4.85,-9.57,0,*74
1495570092.26,28617,15.69,73974.5,1.25,-4.89,-9.79,0,*73
1495570093.47,28618,15.69,73974.5,1.25,-4.99,-9.97,0,*7D
1495570094.69,28619,15.69,73968.0,1.23,-5.11,-10.09,0,*44
1495570095.92,28620,15.69,73972.5,1.23,-5.27,-10.23,0,*43
1495570097.17,28621,15.69,73972.3,1.25,-5.27,-10.35,0,*43
1495570098.4,28622,15.69,73972.5,1.23,-5.31,-10.35,0,*41
1495570099.63,28623,15.69,73974.5,1.23,-5.43,-10.41,0,*46
1495570100.86,28624,15.69,73970.8,1.23,-5.43,-10.63,0,*41
1495570102.09,28625,15.69,73974.0,1.23,-5.55,-10.75,0,*40
1495570103.32,28626,15.69,73970.0,1.23,-5.69,-11.01,0,*4E
1495570104.57,28627,15.69,73972.3,1.25,-5.77,-11.01,0,*46
1495570105.79,28628,15.69,73970.5,1.23,-5.81,-11.15,0,*43
1495570107.04,28629,15.69,73972.8,1.25,-5.89,-11.19,0,*40
1495570108.26,28630,15.69,73974.5,1.23,-6.01,-11.37,0,*41
1495570109.51,28631,15.69,73974.8,1.21,-6.13,-11.55,0,*45
1495570110.76,28632,15.69,73972.0,1.23,-6.19,-11.59,0,*42
1495570112.02,28633,15.69,73974.8,1.23,-6.19,-11.63,0,*4A
1495570113.24,28634,15.69,73976.5,1.23,-6.31,-11.77,0,*42
1495570114.47,28635,15.69,73968.0,1.23,-6.43,-11.85,0,*4B
1495570115.7,28636,15.69,73974.3,1.23,-6.47,-11.89,0,*40
1495570116.9,28637,15.69,73974.0,1.23,-6.55,-12.03,0,*43
1495570118.14,28638,15.69,73972.3,1.25,-6.59,-12.15,0,*41
1495570119.35,28639,15.69,73974.5,1.23,-6.73,-12.21,0,*49
1495570120.55,28640,15.69,73972.0,1.23,-6.89,-12.43,0,*46